Hourly Weather Kalanwali

Today, 9 March, Tuesday

Time Temperature Precipitation Wind Pressure Humidity
00:00 +21°C° 0 mm 2 mps 740 mmHg 32%
01:00 +21°C° 0 mm 2 mps 739 mmHg 34%
02:00 +20°C° 0 mm 2 mps 739 mmHg 36%
03:00 +19°C° 0 mm 2 mps 739 mmHg 37%
04:00 +19°C° 0 mm 2 mps 739 mmHg 39%
05:00 +19°C° 0 mm 2 mps 739 mmHg 39%
06:00 +21°C° 0 mm 2 mps 740 mmHg 34%
07:00 +23°C° 0 mm 2 mps 741 mmHg 29%
08:00 +25°C° 0 mm 3 mps 741 mmHg 24%
09:00 +28°C° 0 mm 2 mps 741 mmHg 22%
10:00 +32°C° 0 mm 2 mps 742 mmHg 19%
11:00 +35°C° 0 mm 1 mps 742 mmHg 16%
12:00 +36°C° 0 mm 1 mps 741 mmHg 15%
13:00 +37°C° 0 mm 2 mps 740 mmHg 14%
14:00 +38°C° 0 mm 2 mps 739 mmHg 14%
15:00 +37°C° 0 mm 2 mps 739 mmHg 14%
16:00 +37°C° 0 mm 2 mps 739 mmHg 14%
17:00 +35°C° 0 mm 1 mps 738 mmHg 14%
18:00 +32°C° 0 mm 1 mps 739 mmHg 18%
19:00 +30°C° 0 mm 1 mps 739 mmHg 21%
20:00 +27°C° 0 mm 1 mps 739 mmHg 25%
21:00 +26°C° 0 mm 1 mps 739 mmHg 27%
22:00 +25°C° 0 mm 1 mps 739 mmHg 28%
23:00 +24°C° 0 mm 2 mps 740 mmHg 30%

Tomorrow, 10 March, Wednesday

Time Temperature Precipitation Wind Pressure Humidity
00:00 +23°C° 0 mm 1 mps 739 mmHg 32%
01:00 +22°C° 0 mm 1 mps 739 mmHg 34%
02:00 +21°C° 0 mm 1 mps 739 mmHg 37%
03:00 +21°C° 0 mm 1 mps 739 mmHg 37%
04:00 +20°C° 0 mm 1 mps 739 mmHg 38%
05:00 +20°C° 0 mm 1 mps 739 mmHg 39%
06:00 +22°C° 0 mm 1 mps 739 mmHg 33%
07:00 +24°C° 0 mm 1 mps 740 mmHg 28%
08:00 +26°C° 0 mm 2 mps 741 mmHg 23%
09:00 +30°C° 0 mm 1 mps 741 mmHg 18%
10:00 +34°C° 0 mm 1 mps 741 mmHg 14%
11:00 +36°C° 0 mm 0 mps 741 mmHg 9%
12:00 +39°C° 0 mm 1 mps 740 mmHg 8%
13:00 +39°C° 0 mm 1 mps 739 mmHg 7%
14:00 +39°C° 0 mm 2 mps 739 mmHg 6%
15:00 +39°C° 0 mm 2 mps 738 mmHg 7%
16:00 +38°C° 0 mm 2 mps 738 mmHg 7%
17:00 +37°C° 0 mm 1 mps 737 mmHg 7%
18:00 +33°C° 0 mm 1 mps 738 mmHg 10%
19:00 +29°C° 0 mm 1 mps 738 mmHg 13%
20:00 +25°C° 0 mm 1 mps 738 mmHg 15%
21:00 +25°C° 0 mm 1 mps 738 mmHg 16%
22:00 +24°C° 0 mm 1 mps 738 mmHg 17%
23:00 +23°C° 0 mm 1 mps 739 mmHg 17%

Day after tomorrow, 11 March, Thursday

Time Temperature Precipitation Wind Pressure Humidity
00:00 +23°C° 0 mm 1 mps 738 mmHg 18%
01:00 +21°C° 0 mm 2 mps 738 mmHg 18%
02:00 +21°C° 0 mm 2 mps 738 mmHg 19%
03:00 +20°C° 0 mm 2 mps 738 mmHg 19%
04:00 +20°C° 0 mm 2 mps 738 mmHg 20%
05:00 +19°C° 0 mm 2 mps 738 mmHg 21%
06:00 +21°C° 0 mm 2 mps 738 mmHg 19%
07:00 +24°C° 0 mm 2 mps 739 mmHg 17%
08:00 +26°C° 0 mm 2 mps 740 mmHg 16%
09:00 +30°C° 0 mm 3 mps 740 mmHg 13%
10:00 +35°C° 0 mm 4 mps 740 mmHg 10%
11:00 +40°C° 0 mm 5 mps 740 mmHg 8%
12:00 +40°C° 0 mm 5 mps 740 mmHg 8%
13:00 +41°C° 0 mm 5 mps 739 mmHg 7%
14:00 +41°C° 0 mm 6 mps 738 mmHg 7%
15:00 +41°C° 0 mm 6 mps 737 mmHg 7%
16:00 +40°C° 0 mm 5 mps 737 mmHg 7%
17:00 +39°C° 0 mm 5 mps 737 mmHg 8%
18:00 +35°C° 0 mm 4 mps 737 mmHg 10%
19:00 +30°C° 0 mm 2 mps 737 mmHg 11%
20:00 +27°C° 0 mm 1 mps 737 mmHg 13%
21:00 +27°C° 0 mm 1 mps 737 mmHg 14%
22:00 +26°C° 0 mm 2 mps 738 mmHg 15%
23:00 +25°C° 0 mm 3 mps 738 mmHg 15%

12 March, Friday

Time Temperature Precipitation Wind Pressure Humidity
00:00 +25°C° 0 mm 3 mps 738 mmHg 19%
01:00 +24°C° 0 mm 3 mps 738 mmHg 23%
02:00 +23°C° 0 mm 2 mps 738 mmHg 26%
03:00 +21°C° 0.1 mm 2 mps 738 mmHg 32%
04:00 +20°C° 0.1 mm 2 mps 738 mmHg 37%
05:00 +19°C° 0.1 mm 2 mps 738 mmHg 43%
06:00 +20°C° 0 mm 3 mps 739 mmHg 42%
07:00 +22°C° 0 mm 3 mps 740 mmHg 40%
08:00 +24°C° 0 mm 3 mps 740 mmHg 39%
09:00 +28°C° 0 mm 3 mps 741 mmHg 31%
10:00 +32°C° 0 mm 4 mps 741 mmHg 23%
11:00 +36°C° 0 mm 4 mps 741 mmHg 14%
12:00 +37°C° 0 mm 5 mps 741 mmHg 13%
13:00 +39°C° 0 mm 5 mps 740 mmHg 12%
14:00 +39°C° 0 mm 6 mps 739 mmHg 11%
15:00 +39°C° 0 mm 5 mps 739 mmHg 11%
16:00 +37°C° 0 mm 5 mps 739 mmHg 11%
17:00 +36°C° 0 mm 4 mps 738 mmHg 12%
18:00 +33°C° 0 mm 4 mps 739 mmHg 16%
19:00 +29°C° 0 mm 3 mps 740 mmHg 19%
20:00 +26°C° 0 mm 3 mps 740 mmHg 23%
21:00 +24°C° 0 mm 3 mps 741 mmHg 36%
22:00 +21°C° 0 mm 4 mps 741 mmHg 48%
23:00 +19°C° 0 mm 4 mps 742 mmHg 61%

13 March, Saturday

Time Temperature Precipitation Wind Pressure Humidity
00:00 +19°C° 0 mm 4 mps 742 mmHg 62%
01:00 +19°C° 0 mm 4 mps 742 mmHg 62%
02:00 +18°C° 0 mm 4 mps 742 mmHg 63%
03:00 +18°C° 0 mm 3 mps 742 mmHg 64%
04:00 +17°C° 0 mm 3 mps 742 mmHg 66%
05:00 +17°C° 0 mm 3 mps 742 mmHg 67%
06:00 +19°C° 0 mm 3 mps 743 mmHg 59%
07:00 +21°C° 0 mm 3 mps 743 mmHg 52%
08:00 +24°C° 0 mm 3 mps 744 mmHg 45%
09:00 +27°C° 0 mm 2 mps 744 mmHg 37%
10:00 +30°C° 0 mm 2 mps 744 mmHg 29%
11:00 +34°C° 0 mm 2 mps 744 mmHg 21%
12:00 +36°C° 0 mm 2 mps 744 mmHg 17%
13:00 +37°C° 0 mm 2 mps 743 mmHg 14%
14:00 +38°C° 0 mm 2 mps 742 mmHg 11%
15:00 +38°C° 0 mm 2 mps 741 mmHg 11%
16:00 +37°C° 0 mm 2 mps 741 mmHg 11%
17:00 +37°C° 0 mm 3 mps 740 mmHg 10%
18:00 +34°C° 0 mm 2 mps 740 mmHg 13%
19:00 +29°C° 0 mm 2 mps 741 mmHg 16%
20:00 +26°C° 0 mm 2 mps 741 mmHg 19%
21:00 +25°C° 0 mm 1 mps 741 mmHg 22%
22:00 +23°C° 0 mm 1 mps 741 mmHg 24%
23:00 +22°C° 0 mm 1 mps 741 mmHg 27%

14 March, Sunday

Time Temperature Precipitation Wind Pressure Humidity
00:00 +22°C° 0 mm 1 mps 740 mmHg 28%
01:00 +21°C° 0 mm 1 mps 740 mmHg 29%
02:00 +21°C° 0 mm 1 mps 739 mmHg 31%
03:00 +21°C° 0 mm 1 mps 739 mmHg 32%
04:00 +20°C° 0 mm 1 mps 739 mmHg 34%
05:00 +20°C° 0 mm 1 mps 739 mmHg 35%
06:00 +22°C° 0 mm 1 mps 739 mmHg 32%
07:00 +24°C° 0 mm 1 mps 740 mmHg 28%
08:00 +26°C° 0 mm 1 mps 740 mmHg 24%
09:00 +30°C° 0 mm 1 mps 740 mmHg 20%
10:00 +33°C° 0 mm 1 mps 741 mmHg 16%
11:00 +37°C° 0 mm 1 mps 741 mmHg 12%
12:00 +38°C° 0 mm 2 mps 740 mmHg 10%
13:00 +39°C° 0 mm 3 mps 739 mmHg 9%
14:00 +41°C° 0 mm 4 mps 738 mmHg 7%
15:00 +40°C° 0 mm 3 mps 738 mmHg 8%
16:00 +39°C° 0 mm 3 mps 737 mmHg 8%
17:00 +39°C° 0 mm 3 mps 737 mmHg 8%
18:00 +35°C° 0 mm 2 mps 737 mmHg 11%
19:00 +31°C° 0 mm 2 mps 737 mmHg 13%
20:00 +27°C° 0 mm 2 mps 737 mmHg 16%
21:00 +26°C° 0 mm 1 mps 737 mmHg 17%
22:00 +25°C° 0 mm 1 mps 737 mmHg 18%
23:00 +24°C° 0 mm 1 mps 737 mmHg 20%
Show more

We Need Your Consent

Meteoprog and our Service Providers may store and access personal data such as cookies, device identifiers or other similar technologies on your device and process such data to personalise content and ads, as well as provide social media features and to analyse the traffic.

  • Store and/or access information on your device

    Cookies, device identifiers or other information can be stored or accessed on your device for the purposes indicated above.

  • Personalised ads and content, ad and content measurement, audience insights, and products development

    Ads and content can be personalised based on a profile. More data can be added to better personalise ads and content. Ad and content performance can be measured. Insights about the audience who saw the ads and content can be derived. Such data can be used to develop or improve user’s experience, systems and software.

By clicking ‘I Agree’ you will allow the use of indicated cookies, device identifiers, web beacons or other similar technologies. Your settings can be changed in the browser on your device.

For certain purposes, legitimate interests may be relied on, rather than consent. You can read more about this in our Privacy and Cookie Policy.